Overview Statistics Trail Chart Weather Telemetry Raw packets
 

This is the latest recevied weather packets stored in our database for station/object K7KAR-2. If no packets are shown the sender has not sent any weather packets the latest 10 day(s).

<< 21 22 23 24 25 26 27 >>
Time Temp. Humidity Pressure Rain* Wind** Luminosity Snow
1788469436 27.78° C 19% 1008.7 hPa 0 mm - 118 W/m² -
1788469137 28.33° C 19% 1008.7 hPa 0 mm - 707 W/m² -
1788468836 27.78° C 20% 1009.1 hPa 0 mm - 760 W/m² -
1788468531 27.78° C 19% 1009.2 hPa 0 mm - 781 W/m² -
1788468228 27.78° C 19% 1009.1 hPa 0 mm - 785 W/m² -
1788467923 27.78° C 19% 1009.2 hPa 0 mm - 791 W/m² -
1788467619 27.78° C 18% 1009.1 hPa 0 mm - 800 W/m² -
1788467317 27.22° C 19% 1009.1 hPa 0 mm - 807 W/m² -
1788467014 27.22° C 19% 1008.9 hPa 0 mm - 817 W/m² -
1788466714 27.78° C 19% 1008.8 hPa 0 mm - 821 W/m² -
1788466409 27.22° C 19% 1009.1 hPa 0 mm - 830 W/m² -
1788466107 27.22° C 19% 1009.3 hPa 0 mm - 835 W/m² -
1788465803 26.67° C 19% 1009.4 hPa 0 mm - 839 W/m² -
1788465498 26.67° C 19% 1009.4 hPa 0 mm - 848 W/m² -
1788465194 26.67° C 19% 1009.5 hPa 0 mm - 852 W/m² -
1788464889 26.67° C 20% 1009.4 hPa 0 mm - 852 W/m² -
1788464585 26.67° C 19% 1009.3 hPa 0 mm - 860 W/m² -
1788464280 26.67° C 19% 1009.5 hPa 0 mm - 868 W/m² -
1788463990 27.22° C 19% 1009.6 hPa 0 mm - 867 W/m² -
1788463671 26.11° C 20% 1009.4 hPa 0 mm - 866 W/m² -
1788463367 26.67° C 19% 1009.4 hPa 0 mm - 875 W/m² -
1788463063 26.11° C 20% 1009.3 hPa 0 mm - 875 W/m² -
1788462759 26.11° C 20% 1009.4 hPa 0 mm - 878 W/m² -
1788462475 25.56° C 20% 1009.6 hPa 0 mm - 876 W/m² -
1788462147 26.11° C 20% 1009.7 hPa 0 mm - 877 W/m² -

* Rain latest hour (hover to see other rain measurements)
** Current wind speed in m/s (hover to see current wind gust speed)